Location: San Pelegr�n
(42.1868°N, 0.0079°E)
Time: 18:42:08
(UTC+00:00)

Cosmos 44 Rocket - Pass Details

Date: 24 January 2020
Orbit: 660 x 730 km, 65.1° (Epoch: 26 February)

Event Time Altitude Azimuth Distance (km) Brightness Sun altitude
Rises 18:50:03 0° 194° (SSW) 3,036 6.9 -19.7°
Reaches altitude 10° 18:52:28 10° 188° (S) 2,114 6.0 -20.1°
Enters shadow 18:56:54 44° 120° (ESE) 930 3.6 -20.9°
